Tunica, MS

9:42 PM CST on December 13, 2017 (GMT -0600)
Tunica

Weather History for KUTA - October, 2013

Change the Weather History Date:

Sunday, October 20, 2013

  Actual Average (KAWM) Record (KAWM)
Temperature  
Mean Temperature 52 °F -  
Max Temperature 66 °F 72 °F 87 °F (1979)
Min Temperature 37 °F 46 °F 33 °F (1964)
Degree Days  
Heating Degree Days 14    
Growing Degree Days 2 (Base 50)    
Moisture  
Dew Point 41 °F    
Average Humidity 74    
Maximum Humidity 100    
Minimum Humidity 37    
Precipitation  
Precipitation 0.00 in - - ()
Sea Level Pressure  
Sea Level Pressure 30.07 in    
Wind  
Wind Speed 2 mph (South)    
Max Wind Speed 9 mph    
Max Gust Speed -    
Visibility 9 miles    
Events      
Averages and records for this station are not official NWS values.
T = Trace of Precipitation, MM = Missing Value Source: NWS Daily Summary

Daily Weather History Graph

Daily Weather History Graph

Search for Another Location

Airport or City:

Trip Planner

Search our weather history database for the weather conditions in past years. The results will help you decide how hot, cold, wet, or windy it might be!

Date:

Astronomy

Oct. 20, 2013 Rise Set
Actual Time 7:11 AM CDT 6:20 PM CDT
Civil Twilight 6:45 AM CDT 6:45 PM CDT
Nautical Twilight 6:16 AM CDT 7:15 PM CDT
Astronomical Twilight 5:47 AM CDT 7:44 PM CDT
Moon 7:33 PM CDT (10/20) 8:45 AM CDT (10/20)
Length of Visible Light 11h 59m
Length of Day
11h 08m
Full, 97% of the Moon is Illuminated
Oct 20
Full
Oct 26
Last Quarter
Nov 3
New
Nov 9
First Quarter
Nov 17
Full

Hourly Weather History & Observations

Time (CDT) Temp. Windchill Dew Point Humidity Pressure Visibility Wind Dir Wind Speed Gust Speed Precip Events Conditions
12:15 AM 41.0 °F - 41.0 °F 100% 30.08 in 10.0 mi Calm Calm - N/A   Clear
12:35 AM 41.0 °F - 39.2 °F 93% 30.08 in 2.0 mi Calm Calm - N/A   Clear
12:55 AM 39.2 °F - 37.4 °F 93% 30.08 in 10.0 mi Calm Calm - N/A   Clear
1:15 AM 41.0 °F - 39.2 °F 93% 30.08 in 4.0 mi Calm Calm - N/A   Clear
1:35 AM 41.0 °F - 41.0 °F 100% 30.08 in 10.0 mi Calm Calm - N/A   Clear
1:55 AM 41.0 °F - 39.2 °F 93% 30.09 in 10.0 mi Calm Calm - N/A   Clear
2:15 AM 41.0 °F - 39.2 °F 93% 30.08 in 1.2 mi Calm Calm - N/A   Mist
2:35 AM 39.2 °F 37.0 °F 37.4 °F 93% 30.09 in 1.8 mi SSE 3.5 mph - N/A   Mist
2:55 AM 41.0 °F - 39.2 °F 93% 30.09 in 7.0 mi Calm Calm - N/A   Clear
3:15 AM 41.0 °F - 39.2 °F 93% 30.08 in 10.0 mi Calm Calm - N/A   Clear
3:35 AM 41.0 °F 39.0 °F 39.2 °F 93% 30.08 in 1.5 mi South 3.5 mph - N/A   Mist
3:55 AM 41.0 °F - 39.2 °F 93% 30.08 in 10.0 mi Calm Calm - N/A   Clear
4:15 AM 41.0 °F - 39.2 °F 93% 30.08 in 10.0 mi Calm Calm - N/A   Clear
4:35 AM 39.2 °F - 37.4 °F 93% 30.08 in 7.0 mi Calm Calm - N/A   Clear
4:55 AM 39.2 °F - 37.4 °F 93% 30.09 in 1.0 mi Calm Calm - N/A   Mist
5:15 AM 41.0 °F - 39.2 °F 93% 30.09 in 4.0 mi Calm Calm - N/A   Clear
5:35 AM 37.4 °F - 37.4 °F 100% 30.10 in 4.0 mi Calm Calm - N/A   Clear
5:55 AM 39.2 °F - 37.4 °F 93% 30.10 in 7.0 mi Calm Calm - N/A   Clear
6:15 AM 37.4 °F - 37.4 °F 100% 30.10 in 5.0 mi Calm Calm - N/A   Clear
6:35 AM 37.4 °F 33.8 °F 37.4 °F 100% 30.10 in 5.0 mi SSE 4.6 mph - N/A   Clear
6:55 AM 41.0 °F - 39.2 °F 93% 30.11 in 10.0 mi Calm Calm - N/A   Clear
7:15 AM 39.2 °F - 39.2 °F 100% 30.11 in 7.0 mi Calm Calm - N/A   Clear
7:35 AM 39.2 °F - 39.2 °F 100% 30.11 in 5.0 mi Calm Calm - N/A   Clear
7:55 AM 41.0 °F - 39.2 °F 93% 30.11 in 7.0 mi Calm Calm - N/A   Clear
8:15 AM 42.8 °F - 42.8 °F 100% 30.12 in 10.0 mi Calm Calm - N/A   Clear
8:35 AM 44.6 °F 42.2 °F 44.6 °F 100% 30.13 in 10.0 mi SSE 4.6 mph - N/A   Clear
8:55 AM 48.2 °F - 46.4 °F 93% 30.13 in 10.0 mi SSE 5.8 mph - N/A   Clear
9:15 AM 50.0 °F - 46.4 °F 87% 30.13 in 10.0 mi South 6.9 mph - N/A   Clear
9:35 AM 51.8 °F - 44.6 °F 76% 30.13 in 10.0 mi SSE 5.8 mph - N/A   Clear
9:55 AM 53.6 °F - 44.6 °F 72% 30.13 in 10.0 mi South 5.8 mph - N/A   Clear
10:15 AM 55.4 °F - 42.8 °F 63% 30.13 in 10.0 mi SSE 6.9 mph - N/A   Clear
10:35 AM 57.2 °F - 42.8 °F 59% 30.13 in 10.0 mi SSE 6.9 mph - N/A   Clear
10:55 AM 59.0 °F - 41.0 °F 51% 30.13 in 10.0 mi South 4.6 mph - N/A   Clear
11:15 AM 60.8 °F - 42.8 °F 52% 30.13 in 10.0 mi South 6.9 mph - N/A   Clear
11:35 AM 60.8 °F - 41.0 °F 48% 30.12 in 10.0 mi South 3.5 mph - N/A   Clear
11:55 AM 60.8 °F - 39.2 °F 45% 30.12 in 10.0 mi SSW 6.9 mph - N/A   Clear
12:15 PM 60.8 °F - 39.2 °F 45% 30.11 in 10.0 mi SW 6.9 mph - N/A   Clear
12:35 PM 62.6 °F - 41.0 °F 45% 30.11 in 10.0 mi WSW 5.8 mph - N/A   Clear
12:55 PM 62.6 °F - 41.0 °F 45% 30.10 in 10.0 mi SSW 8.1 mph - N/A   Clear
1:15 PM 62.6 °F - 39.2 °F 42% 30.08 in 10.0 mi SSW 9.2 mph - N/A   Clear
1:35 PM 64.4 °F - 41.0 °F 42% 30.07 in 10.0 mi Calm Calm - N/A   Clear
1:55 PM 64.4 °F - 41.0 °F 42% 30.07 in 10.0 mi SSW 6.9 mph - N/A   Clear
2:15 PM 64.4 °F - 41.0 °F 42% 30.06 in 10.0 mi South 8.1 mph - N/A   Clear
2:35 PM 64.4 °F - 39.2 °F 40% 30.05 in 10.0 mi SSW 5.8 mph - N/A   Clear
2:55 PM 64.4 °F - 37.4 °F 37% 30.05 in 10.0 mi Calm Calm - N/A   Clear
3:15 PM 64.4 °F - 39.2 °F 40% 30.04 in 10.0 mi West 4.6 mph - N/A   Clear
3:35 PM 66.2 °F - 39.2 °F 37% 30.03 in 10.0 mi Calm Calm - N/A   Clear
3:55 PM 66.2 °F - 39.2 °F 37% 30.03 in 10.0 mi Calm Calm - N/A   Clear
4:15 PM 66.2 °F - 39.2 °F 37% 30.02 in 10.0 mi South 3.5 mph - N/A   Clear
4:35 PM 66.2 °F - 41.0 °F 40% 30.02 in 10.0 mi SSW 4.6 mph - N/A   Clear
4:55 PM 64.4 °F - 39.2 °F 40% 30.02 in 10.0 mi South 4.6 mph - N/A   Clear
5:15 PM 64.4 °F - 39.2 °F 40% 30.02 in 10.0 mi Calm Calm - N/A   Clear
5:35 PM 64.4 °F - 39.2 °F 40% 30.01 in 10.0 mi South 4.6 mph - N/A   Clear
5:55 PM 62.6 °F - 39.2 °F 42% 30.01 in 10.0 mi Calm Calm - N/A   Clear
6:15 PM 60.8 °F - 41.0 °F 48% 30.01 in 10.0 mi Calm Calm - N/A   Clear
6:35 PM 59.0 °F - 42.8 °F 55% 30.01 in 10.0 mi Calm Calm - N/A   Clear
6:55 PM 53.6 °F - 44.6 °F 72% 30.01 in 10.0 mi SSE 3.5 mph - N/A   Clear
7:15 PM 53.6 °F - 44.6 °F 72% 30.01 in 10.0 mi SE 3.5 mph - N/A   Clear
7:35 PM 51.8 °F - 44.6 °F 76% 30.02 in 10.0 mi SE 3.5 mph - N/A   Clear
7:55 PM 51.8 °F - 44.6 °F 76% 30.02 in 10.0 mi SE 3.5 mph - N/A   Clear
8:15 PM 51.8 °F - 44.6 °F 76% 30.02 in 10.0 mi SE 3.5 mph - N/A   Clear
8:35 PM 51.8 °F - 44.6 °F 76% 30.03 in 10.0 mi Calm Calm - N/A   Clear
8:55 PM 50.0 °F - 44.6 °F 82% 30.03 in 10.0 mi SSE 4.6 mph - N/A   Clear
9:15 PM 46.4 °F 45.2 °F 44.6 °F 93% 30.03 in 10.0 mi SSE 3.5 mph - N/A   Clear
9:35 PM 48.2 °F - 44.6 °F 87% 30.03 in 10.0 mi ESE 5.8 mph - N/A   Clear
9:55 PM 48.2 °F - 44.6 °F 87% 30.03 in 10.0 mi Calm Calm - N/A   Clear
10:15 PM 46.4 °F 44.3 °F 44.6 °F 93% 30.03 in 10.0 mi SSE 4.6 mph - N/A   Clear
10:35 PM 44.6 °F 43.1 °F 42.8 °F 93% 30.04 in 10.0 mi SSE 3.5 mph - N/A   Clear
10:55 PM 46.4 °F 45.2 °F 44.6 °F 93% 30.04 in 10.0 mi SSE 3.5 mph - N/A   Clear
11:15 PM 46.4 °F - 44.6 °F 93% 30.03 in 10.0 mi Calm Calm - N/A   Clear
11:35 PM 46.4 °F 45.2 °F 44.6 °F 93% 30.03 in 10.0 mi SSE 3.5 mph - N/A   Clear
11:55 PM 46.4 °F 45.2 °F 42.8 °F 87% 30.03 in 10.0 mi SSE 3.5 mph - N/A   Clear